Regional Weather Roundup
Issued by NWS Little Rock, AR

Home | Current Version | Previous Version | Graphics & Text | Print | Product List | Glossary On
Versions: 1 2 3 4 5 6 7 8 9 10 11 12 13 14 15 16 17 18 19 20 21 22 23 24 25 26 27 28 29 30 31 32 33 34 35 36 37 38 39 40 41 42 43 44 45 46 47 48 49 50
000
ASUS44 KLZK 241105
RWRLZK

WEATHER ROUNDUP FOR ARKANSAS
NATIONAL WEATHER SERVICE LITTLE ROCK AR
500 AM CST FRI NOV 24 2017

NOTE: "FAIR" INDICATES FEW OR NO CLOUDS BELOW 12,000 FEET WITH NO
SIGNIFICANT WEATHER AND/OR OBSTRUCTIONS TO VISIBILITY.

ARZ001-003-010-029-241200-
NORTHWEST ARKANSAS

CITY           SKY/WX    TMP DP  RH WIND       PRES   REMARKS
FAYETTEVILLE   CLEAR     37  32  82 S3        29.93F
FORT SMITH     CLOUDY    38  33  82 E3        29.95F
HARRISON       CLEAR     54  29  38 CALM      29.92F
BENTONVILLE    CLEAR     43  29  57 S5        29.93F
ROGERS         CLEAR     44  30  57 S6        29.92F
SILOAM SPGS    CLEAR     44  29  55 S3        29.92F
$$

ARZ004-005-016-241200-
NORTH CENTRAL ARKANSAS

CITY           SKY/WX    TMP DP  RH WIND       PRES   REMARKS
BATESVILLE     CLEAR     39  29  67 CALM      29.96S
FLIPPIN        CLEAR     33  30  88 CALM      29.95S
$$

ARZ040-041-241200-
WEST CENTRAL ARKANSAS

CITY           SKY/WX    TMP DP  RH WIND       PRES   REMARKS
MENA           CLOUDY    43  32  65 CALM      29.96F
MOUNT IDA      PTCLDY    34  30  85 CALM      29.95S
$$

ARZ009-017-025-026-028-241200-
NORTHEAST ARKANSAS

CITY           SKY/WX    TMP DP  RH WIND       PRES   REMARKS
JONESBORO      CLEAR     36  29  75 S3        29.97S
NEWPORT        CLEAR     34  29  82 S6        29.97S WCI  29
WALNUT RIDGE     N/A     35  29  78 S5        29.96S WCI  31
BLYTHEVILLE    PTCLDY    39  31  72 S7        29.98S
$$

ARZ022-023-033-042-044-241200-
CENTRAL ARKANSAS

CITY           SKY/WX    TMP DP  RH WIND       PRES   REMARKS
LITTLE ROCK    CLEAR     35  32  88 W5        29.99S WCI  31
N LITTLE ROCK    N/A     41  31  66 SW3       30.00F
JACKSONVILLE   CLEAR     30  27  89 CALM      29.97S
SEARCY         CLEAR     29  29 100 CALM      29.98S
HOT SPRINGS    CLOUDY    37  33  85 CALM      29.99S
RUSSELLVILLE   PTCLDY    33  31  92 CALM      29.97S
CLINTON        FAIR      30  28  93 CALM      29.98S
$$

ARZ036-241200-
EAST ARKANSAS

CITY           SKY/WX    TMP DP  RH WIND       PRES   REMARKS
WEST MEMPHIS   CLEAR     36  31  82 S8        29.99F
$$

ARZ050-053-066-070-073-241200-
SOUTHWEST ARKANSAS

CITY           SKY/WX    TMP DP  RH WIND       PRES   REMARKS
ARKADELPHIA    FAIR      28  25  88 CALM      30.02S
CAMDEN         CLEAR     30  28  93 CALM      30.01S
TEXARKANA      CLEAR     41  33  73 S6        29.99F
EL DORADO      CLEAR     32  32 100 CALM      30.02S
DE QUEEN       PTCLDY    32  32 100 CALM      29.98F
$$

ARZ056-057-069-241200-
SOUTHEAST ARKANSAS

CITY           SKY/WX    TMP DP  RH WIND       PRES   REMARKS
PINE BLUFF     CLEAR     33  28  81 CALM      30.00F
STUTTGART      CLEAR     40  30  67 S6        30.00S
MONTICELLO     CLEAR     36  30  79 CALM      30.01F

$$





USA.gov is the U.S. government's official web portal to all federal, state and local government web resources and services.